sat.trackr.live / text

‹ back to catalog

STARLINK-35957

NORAD 66823 · 2025-280C

PAYLOAD ACTIVE UNKNOWN

§ Identity

Operator
Country
US
Launch date
2025-12-02
Launch site
AFWTR
Launch vehicle
Mass (kg)
RCS (m²)

Purposes: comms

External: N2YO · Heavens-Above · Gunter

§ Orbital elements

Epoch: 2026-09-20T06:16:18.784128Z

Period
96.11 min
Inclination
70.0005°
Eccentricity
0.0002908
Mean motion
14.98327859 rev/d
Perigee alt
570.0 km
Apogee alt
574.1 km
Semi-major
6,950.2 km
B*
3.3211e-4
RAAN
203.7572°
Arg perigee
268.8703°
Mean anomaly
91.2123°
Rev number
4,522

§ Raw data

STARLINK-359571 66823U 25280C   26263.26132852  .00003872  00000+0  33211-3 0  99922 66823  70.0005 203.7572 0002908 268.8703  91.2123 14.98327859 45225

JSON: /api/v1/satellites/66823 · /tle

For live sub-satellite position, see the globe view (requires WebGL).

§ Visibility from observer

Set your observer location to see the next 7 days of passes ≥ 10°. The values pass through the URL so the page stays shareable.

No JS? Fill the form by hand. The geolocation button needs JavaScript.